GEFSMA_500_meanwind_000.txt.gz
Wind_Speed
12 13 14 15 14 13 13 14 15 15 14 12 12 12 12 11 13 15 18 19 21 23 24 24 23 23 25 26 27 26 25 24 19 18 16 19 19 20 21 21 20 18 18
15 18 20 19 18 15 14 14 16 15 14 15 15 15 15 16 18 18 18 20 22 22 22 23 22 23 24 26 27 25 23 25 25 23 22 21 23 21 20 20 19 16 16
19 20 22 21 20 17 15 16 17 16 16 17 16 16 16 18 20 19 19 20 22 22 21 20 21 22 22 23 24 23 21 23 26 26 26 24 22 24 23 21 19 17 16
23 23 22 21 20 19 19 20 19 19 18 19 18 17 19 21 21 20 20 20 21 23 22 21 20 22 23 23 23 23 22 23 25 28 29 29 29 28 27 25 21 20 20
30 28 24 21 22 22 23 24 23 22 21 20 21 21 22 22 20 20 21 20 22 23 22 22 22 21 23 26 26 25 23 23 25 27 30 32 32 34 33 32 23 24 26
35 33 27 23 23 24 26 26 25 24 25 23 22 22 24 22 19 20 20 21 23 23 23 22 23 23 24 26 29 28 25 24 23 25 28 29 32 30 31 34 28 22 26
34 35 32 26 25 26 27 27 25 24 27 26 24 24 25 23 21 20 22 21 21 21 22 22 24 25 26 27 28 28 28 25 24 24 25 26 27 26 22 28 28 31 30
33 37 39 34 33 30 28 27 26 28 27 28 25 24 25 24 23 22 23 23 23 22 22 25 27 29 31 30 29 27 27 25 22 21 21 24 24 22 18 21 23 27 23
36 41 44 42 36 29 27 28 27 29 28 26 24 24 26 27 26 25 22 24 26 24 24 26 29 30 32 31 30 25 24 23 20 20 20 22 21 17 11 11 17 16 15
46 46 47 43 38 33 30 28 30 34 33 31 28 28 28 29 30 29 27 25 26 26 24 26 29 31 31 28 27 25 23 21 19 18 18 20 18 15 19 16 16 17 20
38 45 49 42 41 43 38 32 33 39 39 35 32 32 31 31 31 29 28 27 26 26 25 27 31 31 30 26 22 21 21 18 18 16 16 18 17 19 19 19 20 23 24
35 46 53 49 50 46 41 37 33 36 36 36 34 33 34 32 32 30 29 30 29 28 28 28 29 30 28 24 20 16 17 17 18 15 13 15 13 14 18 23 20 17 16
33 38 47 50 42 38 38 35 36 39 38 37 35 34 34 34 32 30 27 30 31 31 30 29 28 29 28 24 22 18 16 17 17 14 11 11 10 12 16 17 13 10 11
27 31 32 33 29 32 36 36 35 34 35 35 34 34 32 32 32 30 28 30 31 33 32 29 28 29 28 24 22 20 18 16 15 14 11 11 15 16 16 13 9 6 6
26 35 34 30 29 31 34 37 34 32 32 32 32 33 32 32 29 29 29 31 31 32 32 29 28 29 28 24 21 19 17 17 17 15 15 14 14 13 11 8 5 6 8
29 34 36 37 35 33 36 34 31 32 33 35 35 33 31 31 28 28 30 31 30 30 30 29 28 28 26 22 20 20 18 17 16 18 21 16 13 9 8 7 8 8 7
27 25 27 31 30 29 33 32 31 33 34 33 31 29 29 29 28 28 29 29 29 30 29 30 29 28 27 24 19 17 15 15 17 20 18 16 13 11 12 11 9 8 8
23 24 23 23 28 32 34 34 33 32 32 32 31 29 29 29 29 28 29 29 30 29 28 28 30 26 25 24 20 16 14 15 15 17 16 16 15 16 18 15 13 12 10
26 26 26 26 29 31 32 33 34 34 34 33 32 31 30 29 30 29 29 29 29 28 28 28 29 26 26 24 22 18 16 15 15 16 13 13 15 17 18 18 17 15 12
26 26 27 29 30 31 33 35 35 35 35 35 34 33 31 30 32 31 31 30 29 28 28 30 28 26 26 25 23 18 21 18 14 15 14 15 18 18 18 19 19 17 16
29 30 31 32 33 33 34 34 35 35 35 36 36 35 32 31 32 32 32 32 31 30 29 29 29 28 27 26 24 22 23 21 18 15 15 15 15 17 17 18 20 21 22
36 36 38 38 38 38 39 39 40 39 39 36 35 36 37 37 34 32 29 28 29 28 27 28 28 28 28 28 29 28 27 24 22 16 15 17 17 15 14 15 19 23 25
44 44 44 44 45 44 42 41 42 41 39 36 34 34 33 34 34 33 30 27 26 26 28 28 28 29 29 31 30 28 31 30 26 24 19 18 20 19 17 18 20 23 25
48 48 48 47 47 46 42 40 39 38 35 33 32 33 32 33 33 33 33 34 33 32 31 30 30 32 33 30 33 34 32 34 32 29 26 23 22 21 20 20 22 25 25
46 46 47 47 45 44 41 39 37 36 33 30 30 30 31 33 34 36 36 36 36 36 36 34 35 36 38 38 35 32 28 25 23 21 28 29 27 24 18 18 22 22 22
38 36 35 38 39 39 38 38 38 37 36 34 33 33 32 31 34 36 36 36 36 36 36 36 37 37 38 41 39 34 35 32 27 29 25 23 26 26 22 21 22 24 23

GEFSMA_500_meanwind_006.txt.gz
Wind_Speed
31 30 29 28 26 24 22 21 21 19 16 15 16 17 17 18 19 20 20 21 22 22 21 21 21 22 21 21 21 21 20 18 17 15 14 13 13 13 15 16 17 18 19
33 32 28 27 27 28 27 24 22 20 18 17 17 18 18 19 20 20 21 22 23 23 22 21 21 22 22 21 21 21 21 20 18 17 16 15 15 14 16 16 17 18 19
34 35 32 30 29 31 31 28 26 23 20 19 18 18 20 20 19 21 22 23 23 23 22 22 23 23 22 22 21 21 21 22 21 20 19 18 18 18 17 17 16 17 19
36 37 38 37 35 33 33 31 29 25 23 21 20 20 21 21 21 22 23 23 22 21 21 23 24 24 22 20 20 20 21 21 22 21 20 20 20 20 19 17 17 17 19
39 40 41 41 38 35 34 34 32 29 26 24 23 22 22 21 22 23 23 23 22 21 21 23 25 25 25 22 21 21 21 23 23 22 20 20 20 21 20 17 16 18 20
40 41 41 40 38 35 34 35 34 31 28 26 25 24 23 23 22 22 23 24 24 23 24 25 27 28 27 26 25 25 23 24 24 23 22 21 20 20 20 18 18 20 24
39 38 37 37 36 35 35 36 35 33 29 26 26 25 25 25 23 23 22 23 23 23 25 26 27 28 29 28 28 28 26 25 24 23 22 22 21 19 19 18 20 21 29
39 37 36 37 37 35 35 37 38 35 31 29 29 28 27 25 23 22 21 22 22 23 26 27 28 29 28 28 28 28 28 26 24 22 21 21 20 19 19 19 20 23 27
42 39 37 37 38 37 37 39 40 38 34 32 31 29 28 26 24 23 23 24 25 27 28 27 28 28 28 28 27 27 27 25 23 21 20 20 20 20 19 20 21 23 16
45 43 41 39 38 38 38 40 41 40 38 35 32 31 31 30 29 28 27 25 26 27 26 26 28 28 29 30 29 28 26 23 22 20 18 18 18 18 18 19 21 16 11
46 45 44 41 40 40 40 41 42 42 40 37 34 33 33 33 31 30 28 27 26 25 24 25 29 30 31 32 31 29 26 21 20 19 17 16 16 16 16 18 19 18 16
43 43 44 42 40 40 40 41 43 43 43 40 37 35 34 32 31 30 28 27 28 30 28 27 28 30 32 33 32 28 25 22 20 19 17 17 17 16 15 17 18 18 18
42 43 44 44 41 40 40 42 42 43 44 42 39 36 34 31 29 29 27 26 28 30 30 29 28 29 30 30 29 26 23 22 20 19 18 17 17 16 16 17 18 18 18
42 43 45 44 42 40 41 40 41 44 45 43 40 36 32 28 26 26 25 24 26 28 30 31 29 28 28 29 27 24 22 21 19 18 17 16 17 18 17 18 19 19 19
36 36 37 38 39 39 39 39 41 42 40 40 37 33 29 27 26 25 25 26 27 27 27 30 30 28 26 25 25 23 21 20 18 17 17 17 17 19 19 19 19 18 16
30 28 30 33 35 36 37 38 38 35 34 33 31 28 25 24 24 25 26 26 25 25 24 26 26 25 23 22 22 22 22 21 19 17 18 19 20 21 20 19 18 15 13
27 25 26 28 28 28 31 33 34 32 31 30 28 23 21 22 24 25 25 24 24 24 23 23 24 24 23 21 20 20 22 21 20 18 18 19 20 19 18 18 17 15 15
27 24 24 23 22 22 22 23 26 27 26 25 23 22 21 23 24 24 23 23 24 24 24 22 23 23 23 23 21 20 21 21 21 20 20 20 20 18 17 18 18 17 15
28 26 25 24 23 21 21 21 20 19 19 19 20 22 23 25 26 25 24 24 24 25 24 23 23 24 24 24 23 22 21 22 23 22 22 21 18 17 18 19 20 17 14
33 30 28 26 25 24 22 21 21 21 21 22 24 25 26 27 27 26 26 26 26 26 25 24 24 25 26 25 24 24 23 23 24 22 21 21 19 18 19 21 22 20 18
38 38 35 33 32 30 28 27 26 26 26 26 27 27 28 28 28 28 28 28 29 29 27 26 26 26 27 25 24 24 24 24 22 21 21 22 22 22 23 25 26 26 24
38 39 40 40 41 40 38 36 34 34 34 34 34 33 33 32 31 31 31 31 30 30 30 30 29 28 27 25 24 24 24 24 23 22 22 23 24 26 27 28 29 29 27
38 39 41 42 44 45 45 44 43 43 42 41 40 39 38 37 35 33 31 31 32 32 31 30 29 28 26 25 24 25 26 26 25 24 24 24 25 27 27 28 29 28 27
39 40 42 43 44 46 46 46 46 46 45 44 43 42 41 39 36 32 31 31 32 32 32 31 30 29 28 26 25 27 29 30 30 29 29 28 27 26 28 28 27 27 26
37 39 40 42 44 45 45 45 45 45 44 43 42 42 41 40 37 34 33 33 33 33 33 33 33 33 32 31 30 29 30 31 32 33 33 31 31 28 26 28 31 30 29
35 35 36 37 39 40 40 40 40 40 39 38 37 37 38 39 39 37 36 35 35 34 34 35 35 35 35 35 35 34 33 33 33 34 35 34 33 31 29 27 27 28 28

GEFSMA_500_meanwind_012.txt.gz
Wind_Speed
17 19 22 24 26 26 24 23 22 23 22 21 20 21 20 20 19 18 17 17 18 18 19 19 17 15 13 13 12 12 12 12 13 13 13 13 13 14 14 15 17 19 20
19 21 23 26 28 29 28 26 24 24 24 24 23 23 22 22 22 20 20 19 19 19 19 18 15 13 13 13 13 13 12 12 13 14 15 15 15 16 16 15 17 18 20
23 24 26 28 30 31 30 29 26 25 25 25 25 25 24 24 24 23 22 21 20 20 20 19 16 14 14 14 15 14 14 14 15 15 16 17 17 17 17 17 18 19 20
28 29 30 32 34 35 34 32 30 27 26 25 26 27 26 26 26 26 25 24 23 22 21 20 18 16 16 16 17 16 16 17 17 18 18 18 19 18 19 19 19 20 21
33 34 35 36 38 37 36 34 33 30 28 26 26 27 29 29 28 28 28 27 25 24 23 22 20 18 18 18 19 19 19 18 19 19 19 19 20 20 20 21 21 21 22
36 38 40 40 41 39 37 35 34 32 30 29 27 28 28 30 30 30 30 30 28 26 25 24 22 20 20 19 20 21 21 20 20 20 19 20 21 21 22 22 22 22 22
41 42 43 44 44 41 39 37 36 34 32 31 29 28 28 29 31 32 32 32 30 28 26 24 23 22 21 21 22 22 21 22 22 21 20 20 21 22 22 23 22 21 22
43 44 45 46 46 45 42 41 39 37 35 33 31 29 28 29 30 32 33 33 32 29 27 26 25 24 23 23 22 21 22 24 24 22 21 20 21 22 22 22 22 21 21
44 45 45 45 45 47 46 45 43 41 38 35 33 31 29 30 31 32 33 33 33 31 29 29 28 28 25 24 22 22 24 25 25 23 21 21 20 20 21 21 20 20 21
43 44 44 44 45 46 47 47 45 43 40 37 35 33 32 32 32 33 34 34 34 33 33 32 31 30 27 25 24 24 25 25 25 22 21 20 20 20 20 19 18 18 19
43 43 44 45 45 46 46 46 45 43 40 37 36 35 34 33 33 33 33 35 35 34 34 34 33 31 29 27 26 25 24 24 22 20 19 19 19 19 19 18 17 16 17
43 44 45 46 46 45 45 44 43 42 39 38 37 37 35 34 33 34 33 34 36 36 34 33 33 32 30 28 27 25 23 22 21 19 18 18 19 20 19 18 16 15 15
45 46 47 47 45 44 42 41 40 38 37 36 37 37 36 34 35 35 35 35 36 37 35 32 32 32 31 28 26 24 22 21 20 19 18 18 19 20 20 19 17 15 16
48 48 47 45 43 41 38 36 35 34 33 34 36 38 39 37 36 36 36 37 37 36 35 33 31 28 27 26 24 23 21 20 19 18 18 19 19 20 20 19 18 17 17
48 46 44 41 39 36 33 32 31 30 31 32 33 36 38 38 38 37 38 38 37 35 34 32 28 24 23 24 23 21 20 19 19 19 19 19 20 20 21 20 19 18 18
42 40 38 36 34 32 30 29 28 28 28 29 32 34 36 38 38 38 37 36 34 34 33 32 27 22 22 22 22 21 20 19 19 20 20 20 20 20 20 21 20 20 19
37 36 35 34 32 30 28 26 25 23 23 25 29 33 35 36 37 37 36 34 32 29 27 26 24 21 22 22 22 21 20 19 19 19 19 19 19 19 19 20 20 19 19
36 35 34 33 32 30 28 25 22 21 20 19 19 20 24 28 31 33 33 32 30 26 23 21 22 21 21 21 21 20 18 18 19 19 19 19 19 19 19 20 19 19 19
35 34 34 33 32 30 28 26 24 22 19 18 18 17 17 18 19 21 23 24 22 20 18 19 21 21 21 21 20 19 18 18 19 20 20 19 20 19 19 18 18 18 18
34 34 34 33 33 31 30 29 28 26 23 21 20 19 18 17 16 16 16 16 17 17 19 21 23 22 22 21 20 20 19 19 20 20 21 20 19 18 18 17 16 17 18
32 33 33 32 31 30 30 29 29 28 27 25 24 24 23 22 21 20 19 19 20 21 22 24 25 25 24 23 22 22 21 21 21 22 22 22 21 19 17 16 16 18 19
29 30 30 30 29 29 29 29 29 28 27 27 26 26 26 27 27 27 26 25 25 25 26 26 27 28 27 26 25 25 25 24 24 24 24 23 22 20 18 18 18 18 21
28 29 30 29 29 29 29 29 29 29 27 26 26 26 26 27 29 30 30 30 31 31 31 30 30 30 30 30 29 28 28 28 27 27 26 25 24 22 21 20 20 21 21
27 28 29 29 29 29 29 29 29 28 27 27 26 26 26 26 27 29 30 31 32 33 33 33 33 33 33 32 32 31 31 31 32 31 30 29 28 26 25 23 23 24 24
24 25 27 28 28 28 28 29 28 27 27 27 27 27 26 26 26 27 29 32 33 34 35 35 36 36 36 36 36 35 35 35 35 35 35 33 33 32 31 28 27 27 27
23 24 25 27 28 28 27 26 26 25 25 26 26 26 25 25 25 25 27 30 32 34 35 37 38 38 39 39 39 39 39 38 39 38 39 39 38 37 35 33 32 30 30

GEFSMA_500_meanwind_018.txt.gz
Wind_Speed
13 13 12 12 12 13 15 18 20 21 22 22 22 20 19 19 20 21 22 22 21 19 18 19 19 18 17 16 14 13 13 12 12 12 12 13 13 14 14 16 17 16 16
15 15 14 15 15 16 18 19 21 22 23 24 24 24 22 20 20 22 23 24 24 21 20 20 20 19 19 18 17 16 14 14 13 14 14 14 14 15 16 17 18 18 18
18 17 17 18 19 20 21 22 23 24 25 25 26 26 25 23 22 23 24 25 26 24 23 22 21 21 21 21 20 19 17 16 16 16 16 16 16 16 17 18 19 19 19
21 20 20 21 22 23 25 25 26 26 27 28 28 29 28 27 26 24 24 26 27 27 26 25 24 24 23 23 23 22 20 19 18 18 18 18 18 18 18 19 20 21 21
25 24 23 24 25 26 28 29 29 30 30 30 30 30 31 30 29 27 26 27 28 29 30 29 28 27 26 25 24 24 22 21 21 20 20 19 19 19 20 21 22 22 22
29 27 26 27 28 29 31 33 34 34 34 34 34 32 32 32 32 30 29 28 28 30 31 32 31 30 28 26 25 25 24 23 23 22 21 20 20 21 22 22 23 23 23
32 31 29 29 31 32 34 36 37 37 37 38 38 35 34 34 33 33 32 30 29 30 31 32 32 31 30 28 27 26 26 25 25 25 23 22 22 22 23 24 24 24 24
35 33 30 30 32 34 35 37 39 39 38 39 40 39 35 34 36 36 34 33 31 31 31 31 31 32 32 31 30 29 28 27 27 27 26 25 24 24 25 25 25 24 24
33 30 30 31 33 34 35 37 39 39 38 38 40 41 39 35 36 36 35 34 33 32 31 31 31 32 32 32 31 30 30 30 29 28 28 27 26 26 26 26 26 25 24
30 29 30 31 33 34 35 37 39 40 40 40 41 41 40 37 35 34 35 35 35 34 32 32 33 33 33 33 33 32 32 31 31 30 30 29 28 27 26 26 26 25 24
29 29 31 33 34 35 36 38 39 41 41 41 40 39 38 36 35 33 32 34 36 35 35 35 35 35 34 34 34 34 33 32 33 32 32 31 29 27 26 26 25 25 24
30 32 33 35 36 37 38 40 41 41 41 39 38 36 34 33 32 32 32 34 37 37 38 36 36 35 35 35 35 35 35 34 33 33 33 32 30 29 27 26 25 25 25
33 35 37 38 39 40 40 40 39 38 37 35 33 31 31 31 31 32 34 36 37 38 40 38 36 35 35 36 36 35 35 35 34 34 33 33 31 30 28 27 26 25 25
35 38 39 41 41 40 38 36 34 33 31 29 28 28 28 29 31 32 34 36 37 38 40 40 38 37 36 36 36 36 36 35 35 34 34 33 32 30 28 27 26 24 25
37 38 38 38 37 35 33 31 29 28 27 25 25 24 26 28 30 31 33 35 38 39 40 40 40 38 37 35 35 36 37 37 36 34 34 33 31 29 28 27 26 24 24
37 37 35 33 31 30 29 28 27 26 25 24 23 23 24 25 26 29 31 34 36 38 39 38 38 38 37 36 35 34 36 37 35 34 33 31 30 28 27 26 25 24 23
36 34 33 32 31 30 29 28 27 26 25 25 24 24 23 23 23 24 26 28 31 34 35 35 35 36 36 36 35 35 36 34 33 32 31 30 29 27 25 24 24 23 22
34 33 33 32 31 30 29 29 28 27 26 25 26 26 25 24 24 23 23 23 24 26 30 32 33 33 33 33 34 34 34 32 31 31 30 29 28 25 24 22 22 23 22
32 32 32 32 31 30 30 29 28 28 27 27 27 27 27 27 26 26 24 24 23 22 22 23 26 27 29 30 31 32 32 29 28 28 29 28 27 25 22 22 22 22 22
32 32 32 31 31 30 29 28 28 28 28 27 27 28 28 29 29 28 27 26 24 22 20 19 20 21 23 25 26 27 27 25 24 24 25 25 24 23 22 21 22 22 22
32 31 31 30 29 29 28 28 28 28 28 27 27 27 27 28 29 30 30 29 28 26 24 22 21 19 20 21 22 22 22 21 20 21 21 22 21 21 21 21 21 21 22
31 31 30 29 28 28 28 28 27 27 27 27 26 26 26 27 28 30 30 31 31 30 29 28 26 24 23 22 22 21 20 20 20 21 21 21 21 21 21 21 20 21 21
30 30 30 29 28 27 26 26 26 26 25 25 25 26 26 27 28 29 30 31 32 32 32 32 31 30 29 27 26 25 25 24 24 24 24 25 24 23 23 22 21 21 21
28 27 27 25 24 24 24 23 24 25 25 25 26 26 26 27 27 28 29 30 31 32 33 34 34 34 34 33 32 30 29 28 28 28 27 26 26 26 25 25 24 23 23
22 21 20 20 20 21 22 22 23 24 24 24 24 25 25 26 26 27 28 30 31 32 34 35 36 36 37 37 37 36 35 33 33 32 30 30 31 31 30 30 29 27 26
16 15 16 17 19 20 21 21 21 21 21 21 22 22 23 24 25 26 27 28 29 31 32 34 35 37 38 39 40 40 39 38 37 37 36 36 35 35 35 34 34 32 32

GEFSMA_500_meanwind_024.txt.gz
Wind_Speed
22 22 22 22 22 22 21 20 19 18 17 17 17 17 16 16 16 16 17 18 19 21 21 21 20 20 19 18 17 16 15 14 15 15 15 15 15 15 15 15 16 16 16
25 25 25 25 26 25 24 24 23 22 21 20 20 20 20 19 19 19 19 20 21 22 23 24 23 23 22 21 20 19 18 17 17 17 16 16 16 16 16 16 17 17 17
29 29 29 29 29 28 28 28 27 26 25 24 24 23 23 23 23 22 22 22 23 23 24 25 26 26 25 24 23 22 21 21 20 20 19 18 17 17 18 18 18 18 18
35 35 34 33 33 32 32 32 31 30 29 28 27 26 26 26 27 26 26 26 25 25 25 26 27 28 28 28 26 25 24 24 23 23 22 21 20 19 19 19 19 19 18
40 40 40 38 37 36 36 35 34 33 32 31 30 29 29 29 29 29 29 29 28 28 28 27 28 29 30 30 30 29 28 27 26 25 25 24 23 21 21 21 21 20 19
45 45 45 44 42 40 40 38 37 35 35 34 33 32 31 31 32 32 32 32 31 30 30 29 30 30 31 32 32 31 30 30 28 27 27 26 26 24 22 22 22 21 21
49 49 48 48 46 44 43 41 38 38 37 37 37 35 33 33 33 33 34 34 34 33 32 31 31 32 32 32 32 32 32 32 31 30 29 28 28 27 25 24 23 23 22
50 49 49 49 48 47 45 44 42 39 39 39 38 37 34 33 34 34 35 36 36 36 35 34 33 33 34 33 33 33 33 33 33 33 32 31 30 29 28 26 25 25 24
50 50 49 48 46 44 45 44 42 38 38 38 38 37 35 34 35 34 36 37 36 36 36 35 34 34 35 35 34 34 33 33 34 34 34 33 33 32 31 29 28 26 26
50 49 47 47 45 42 40 40 38 37 37 37 36 37 37 37 36 34 34 35 35 35 35 35 34 35 35 36 36 35 34 34 34 35 35 34 34 34 33 32 30 28 27
48 47 44 41 39 38 37 35 34 34 34 35 36 37 37 37 36 34 31 32 33 34 34 34 34 35 35 36 36 36 36 36 36 36 36 35 35 35 35 34 32 31 29
47 45 41 37 36 34 33 31 31 32 33 35 36 37 36 35 34 33 30 29 31 32 33 34 34 35 37 38 38 38 38 36 36 37 37 37 36 36 36 35 34 32 30
45 42 37 34 33 31 30 29 30 31 33 35 35 35 34 33 31 30 29 28 29 31 33 34 35 36 38 39 39 40 40 39 38 37 37 37 37 36 36 35 34 34 32
43 41 38 34 33 31 30 30 31 32 33 33 33 32 32 31 29 29 29 28 28 30 32 34 36 37 38 40 41 41 41 40 40 38 38 38 38 37 37 36 35 34 33
42 39 37 35 33 32 31 31 32 32 31 31 30 30 30 30 29 29 29 28 28 29 30 33 35 37 38 39 41 42 42 43 41 40 39 38 38 37 36 37 36 35 34
40 38 36 36 35 33 32 32 31 31 30 29 29 29 29 29 29 29 29 29 29 29 29 30 31 34 36 38 40 41 41 41 42 41 41 40 39 38 37 37 36 36 35
37 37 36 36 36 34 32 32 31 30 29 29 29 30 30 30 30 31 31 31 32 31 31 30 30 30 31 32 34 36 39 40 39 40 39 39 39 38 38 37 37 36 34
36 35 34 34 33 32 31 31 30 30 30 30 31 31 32 32 33 33 33 34 34 34 34 33 31 30 29 29 29 31 34 36 36 36 37 38 38 37 37 36 37 36 34
32 33 33 31 30 30 30 30 29 29 29 31 32 32 33 34 34 35 35 36 36 37 36 35 34 32 30 28 27 26 27 29 31 33 34 35 36 35 35 35 37 36 34
30 30 30 29 28 28 28 28 28 28 29 30 31 32 33 34 35 36 36 37 38 38 38 37 36 35 32 30 28 25 25 25 26 28 31 33 33 32 33 34 35 35 34
24 24 25 25 25 25 25 26 27 28 28 29 30 31 33 34 35 36 36 37 37 38 38 37 37 36 35 33 31 29 26 25 25 25 26 28 29 30 30 31 32 33 33
18 19 20 21 22 23 24 24 25 26 27 28 29 31 32 33 34 35 36 37 37 37 37 37 36 36 35 34 33 32 29 27 26 25 24 23 24 26 28 28 30 30 33
15 16 17 19 20 21 21 22 23 24 25 26 28 29 31 32 33 34 34 35 35 36 35 36 35 35 35 34 33 33 32 31 29 27 25 22 20 21 24 26 28 31 32
15 15 16 16 17 18 19 21 21 22 23 24 25 26 28 29 30 30 31 32 33 34 34 35 36 35 35 34 33 33 32 32 31 30 29 26 23 21 20 23 25 28 31
14 14 14 14 15 15 15 16 17 18 20 21 22 23 24 25 26 27 28 29 31 32 33 34 35 35 35 34 33 33 32 32 32 31 31 30 26 25 25 24 25 28 30
11 11 11 11 12 12 13 14 15 16 17 18 19 19 21 22 23 24 26 28 29 31 32 33 33 34 34 34 34 33 33 33 32 32 32 32 31 28 28 27 25 27 29

GEFSMA_500_meanwind_030.txt.gz
Wind_Speed
28 29 29 29 30 29 29 28 28 27 28 28 28 27 25 24 23 22 20 19 19 19 18 18 18 18 18 19 20 19 18 17 16 16 16 16 15 14 14 13 13 14 14
32 33 33 34 34 34 33 33 33 32 31 31 31 31 30 29 27 26 25 23 22 22 21 21 21 20 20 19 20 21 21 20 19 18 18 18 18 17 17 16 16 15 15
37 37 38 37 38 37 37 37 36 36 36 36 36 35 35 33 32 30 29 27 26 24 24 24 23 23 22 21 21 22 22 23 22 21 21 21 20 20 20 19 18 18 17
40 41 41 41 41 41 40 40 40 40 39 39 39 39 38 36 35 34 32 31 29 28 26 26 25 25 24 24 23 23 23 24 25 25 24 23 23 23 23 22 21 20 19
43 44 44 43 44 44 44 43 42 42 42 43 42 41 41 39 38 36 35 34 33 32 30 28 27 26 26 26 25 25 25 25 26 27 27 26 26 25 25 25 24 23 22
45 46 46 46 45 45 44 45 44 44 44 43 42 41 42 41 40 38 37 36 36 35 33 31 29 28 28 28 28 27 27 27 27 28 29 29 28 28 27 27 26 26 24
48 48 48 47 47 46 45 45 44 45 44 43 43 42 41 41 40 39 38 37 38 37 35 34 32 30 30 30 30 30 30 29 29 29 29 30 30 30 29 29 28 28 27
50 51 50 49 48 48 46 45 45 46 44 44 43 41 40 40 40 39 38 38 38 37 37 36 34 32 31 29 30 31 31 31 30 30 30 30 31 31 32 32 31 30 29
52 51 51 49 48 48 47 46 46 46 45 44 43 41 40 39 40 39 39 39 37 36 36 36 34 31 30 29 28 29 30 31 31 31 31 31 31 31 32 33 33 33 32
51 52 51 50 49 48 46 45 45 44 44 43 42 40 40 40 41 39 39 40 37 36 35 34 32 30 28 27 27 26 28 30 31 32 32 33 33 33 32 33 34 35 35
52 52 51 51 50 48 46 44 44 43 43 41 40 39 39 42 43 41 38 38 36 35 34 33 31 28 26 26 26 25 26 28 30 32 33 34 35 35 35 34 35 35 35
52 52 52 51 49 47 46 45 44 43 42 40 38 38 40 42 41 39 36 34 33 33 33 32 30 28 26 25 25 25 26 28 30 32 34 36 37 37 37 37 37 36 37
53 52 51 50 49 48 47 46 45 41 39 37 35 37 38 37 36 34 32 31 31 31 31 30 29 28 27 26 26 26 27 29 30 32 34 36 37 38 39 40 39 38 38
52 51 51 51 49 47 46 45 43 40 38 37 36 36 35 33 32 31 30 30 30 30 30 29 28 28 28 28 27 27 28 29 31 33 34 35 37 38 40 41 41 39 38
51 50 50 48 46 45 43 41 39 38 37 36 36 34 33 31 30 30 30 30 30 29 29 29 29 29 30 29 29 30 29 30 31 32 34 35 37 38 39 40 41 40 39
49 48 46 44 43 42 40 38 37 36 34 35 35 33 32 30 29 29 29 29 29 29 30 30 30 30 31 31 31 32 32 32 32 33 33 34 35 37 38 40 41 42 41
43 42 42 40 39 37 36 36 34 33 33 33 33 32 31 30 28 28 29 29 30 30 31 31 31 31 32 33 33 34 34 34 33 34 34 34 35 36 37 38 40 42 42
38 38 38 38 37 35 34 34 33 31 32 32 32 30 29 29 28 28 29 30 30 31 32 33 33 34 34 35 36 36 36 36 36 36 36 35 35 35 37 38 39 40 41
32 31 30 30 31 31 31 30 30 30 30 30 29 29 28 27 27 28 29 30 30 31 32 33 34 35 35 36 36 37 38 38 38 37 37 36 35 35 35 36 38 39 39
24 24 24 25 26 26 26 26 27 28 28 28 28 28 27 27 27 27 28 29 30 31 32 33 34 35 36 37 38 38 38 39 39 38 37 37 36 35 35 35 35 37 38
19 17 18 20 21 22 23 24 23 24 24 25 26 25 24 24 25 26 27 28 29 30 31 32 34 35 36 37 38 38 38 39 39 38 37 37 36 35 35 34 34 34 35
13 13 13 15 16 17 18 19 20 20 20 21 20 20 20 21 22 23 25 26 27 29 30 31 33 34 35 36 36 36 37 37 37 37 36 36 36 35 34 33 32 32 32
10 8 8 9 11 12 13 14 15 15 15 16 17 17 18 19 20 21 22 23 24 25 27 28 30 31 32 33 34 34 35 35 35 35 34 34 35 34 33 32 31 30 29
7 6 6 7 8 9 9 9 10 11 12 13 13 14 15 15 16 17 18 19 20 22 24 26 27 29 30 31 32 33 33 34 34 33 32 31 31 32 32 31 31 29 28
7 7 7 7 7 8 8 9 9 9 9 10 10 11 12 12 13 14 15 17 19 21 23 26 28 30 31 32 33 33 33 32 32 32 31 31 29 29 29 29 29 28 26
8 8 7 7 7 7 7 6 7 7 7 8 9 9 9 10 11 12 15 17 19 21 23 25 27 29 30 30 31 32 32 31 30 30 30 29 29 28 27 27 26 27 28